Weather in Raduzhniy

Russia / Vladimir Oblast     55°59′45″N   40°19′56″E
temp.,
°C
wind,
m/s
gust,
m/s
humid.,
%
clouds,
%
prec.,
mm/h
press.,
hPa
HPBL,
m
6 march, sat
sat600:00−14nw11920 0.0 101420
03:00−15wsw12922 0.0 101520
06:00−14w229790 0.1 101520
09:00−11wnw239583 0.1 1016131
12:00−7nw248884 0.0 1015515
15:00−6nnw238492 0.2 1014610
18:00−10n009399 0.2 101421
21:00−11sw129680 0.3 101321
7 march, sun
sun700:00−13sw33945 0.0 101238
03:00−13ssw48933 0.0 1009163
06:00−10ssw6148982 0.0 1005451
09:00−8ssw7149391 0.4 1000786
12:00−5ssw71393100 1.3 9951060
15:00−3ssw71394100 2.9 9911010
18:00−4wnw81393100 2.4 9901029
21:00−7w61575100 3.3 992929
8 march, mon
mon800:00−10wsw512870 0.0 994335
03:00−12wsw389616 0.0 994163
06:00−14wsw239665 0.0 99328
09:00−11wnw379134 0.0 995287
12:00−8wnw588858 0.0 997795
15:00−7nw588779 0.4 1000909
18:00−9nw51091100 0.2 1003660
21:00−13nw4119390 0.3 1007298
9 march, tue
tue900:00−15nw389673 0.0 1009192
03:00−18nw379868 0.1 1011135
06:00−21nw359954 0.0 101386
09:00−19nnw379553 0.0 1015269
12:00−17nw469076 0.0 1016438
15:00−15nnw478780 0.0 1017593
18:00−19nnw3394100 0.0 101865
21:00−23nnw349794 0.0 102079
10 march, wed
wed1000:00−26nnw33975 0.0 102151
03:00−27nw239811 0.0 102330
06:00−28nnw239833 0.0 102440
09:00−25n359525 0.0 1025221
12:00−21n35900 0.0 1026371
15:00−18n35874 0.0 1025403
18:00−22nnw23920 0.0 102620
21:00−24nw12890 0.0 102720